TimeEST,TemperatureF,Dew PointF,Humidity,Sea Level PressureIn,VisibilityMPH,Wind Direction,Wind SpeedMPH,Gust SpeedMPH,PrecipitationIn,Events,Conditions,WindDirDegrees,DateUTC
12:15 AM,33.1,26.8,78,30.38,-9999.0,Calm,Calm,-,N/A,,Clear,0,2013-11-26 05:15:00
12:35 AM,33.1,26.2,76,30.38,10.0,Calm,Calm,-,N/A,,Clear,0,2013-11-26 05:35:00
12:55 AM,32.9,26.6,78,30.38,10.0,NNW,3.5,-,N/A,,Scattered Clouds,330,2013-11-26 05:55:00
1:15 AM,34.5,27.3,75,30.37,10.0,Calm,Calm,-,N/A,,Mostly Cloudy,0,2013-11-26 06:15:00
1:35 AM,35.1,27.0,72,30.35,10.0,NE,4.6,-,N/A,,Mostly Cloudy,40,2013-11-26 06:35:00
1:55 AM,35.1,27.1,73,30.34,10.0,NNE,4.6,-,N/A,,Scattered Clouds,30,2013-11-26 06:55:00
2:15 AM,34.7,27.5,75,30.33,10.0,NNE,3.5,-,N/A,,Clear,20,2013-11-26 07:15:00
2:35 AM,35.4,27.7,73,30.32,10.0,NNE,4.6,-,N/A,,Clear,30,2013-11-26 07:35:00
2:55 AM,35.6,28.4,75,30.31,10.0,NNE,4.6,-,N/A,,Clear,30,2013-11-26 07:55:00
3:15 AM,35.2,28.8,77,30.30,10.0,NE,4.6,-,N/A,,Clear,50,2013-11-26 08:15:00
3:35 AM,36.0,29.5,77,30.28,10.0,ENE,3.5,-,N/A,,Clear,60,2013-11-26 08:35:00
3:55 AM,35.6,30.0,80,30.28,10.0,NNE,5.8,-,N/A,,Clear,30,2013-11-26 08:55:00
4:15 AM,35.6,30.2,81,30.29,10.0,North,4.6,-,N/A,,Clear,10,2013-11-26 09:15:00
4:35 AM,35.6,30.2,81,30.27,10.0,NNE,4.6,-,N/A,,Clear,30,2013-11-26 09:35:00
4:55 AM,36.0,30.7,81,30.28,10.0,NNE,5.8,-,N/A,,Clear,30,2013-11-26 09:55:00
5:15 AM,36.0,30.9,82,30.29,10.0,North,4.6,-,N/A,,Scattered Clouds,10,2013-11-26 10:15:00
5:35 AM,36.5,31.6,83,30.27,-9999.0,NE,4.6,-,N/A,,Scattered Clouds,40,2013-11-26 10:35:00
5:55 AM,36.1,32.0,85,30.26,-9999.0,NNE,4.6,-,N/A,,Unknown,20,2013-11-26 10:55:00
6:56 AM,37.4,33.8,87,30.27,7.0,NNE,4.6,-,N/A,,Mostly Cloudy,30,2013-11-26 11:56:00
7:56 AM,41.0,35.6,81,30.24,10.0,ENE,4.6,-,N/A,,Scattered Clouds,60,2013-11-26 12:56:00
8:56 AM,44.6,39.2,81,30.20,10.0,NE,5.8,-,N/A,,Clear,50,2013-11-26 13:56:00
9:56 AM,50.0,41.0,71,30.20,10.0,ENE,3.5,-,N/A,,Clear,60,2013-11-26 14:56:00
10:56 AM,55.4,44.6,67,30.15,10.0,East,4.6,-,N/A,,Scattered Clouds,100,2013-11-26 15:56:00
11:56 AM,60.8,50.0,68,30.10,10.0,ESE,5.8,-,N/A,,Scattered Clouds,120,2013-11-26 16:56:00
12:56 PM,59.0,57.2,94,30.06,2.5,ESE,6.9,-,N/A,,Drizzle,120,2013-11-26 17:56:00
1:56 PM,59.0,57.2,94,30.02,2.0,ESE,5.8,-,N/A,,Drizzle,110,2013-11-26 18:56:00
2:56 PM,59.0,59.0,100,29.98,2.0,ESE,6.9,-,N/A,Rain,Light Rain,110,2013-11-26 19:56:00
3:56 PM,60.8,59.0,94,29.94,2.0,ESE,6.9,-,N/A,Rain,Rain,120,2013-11-26 20:56:00
4:56 PM,60.8,60.8,100,29.88,3.0,ESE,10.4,-,N/A,Rain,Light Rain,120,2013-11-26 21:56:00
5:56 PM,62.6,60.8,94,29.83,4.0,ESE,12.7,17.3,N/A,Rain,Light Rain,120,2013-11-26 22:56:00
6:56 PM,64.4,62.6,94,29.79,4.0,SE,11.5,18.4,N/A,Rain,Rain,130,2013-11-26 23:56:00
7:56 PM,66.2,64.4,94,29.74,5.0,SSE,12.7,20.7,N/A,,Drizzle,150,2013-11-27 00:56:00
8:15 PM,66.2,64.8,95,29.74,10.0,SSE,13.8,23.0,N/A,Rain,Rain,160,2013-11-27 01:15:00
8:35 PM,66.4,64.9,95,29.72,5.0,SE,13.8,19.6,0.06,Rain,Rain,140,2013-11-27 01:35:00
8:55 PM,66.7,65.5,96,29.71,7.0,SSE,16.1,-,0.11,Rain,Rain,160,2013-11-27 01:55:00
8:56 PM,66.2,66.2,100,29.71,3.0,SSE,16.1,-,N/A,Rain,Rain,160,2013-11-27 01:56:00
9:15 PM,67.3,65.8,95,29.70,7.0,SSE,19.6,28.8,0.04,Rain,Rain,160,2013-11-27 02:15:00
9:35 PM,67.5,66.2,96,29.69,10.0,SSE,19.6,26.5,0.08,Rain,Light Rain,160,2013-11-27 02:35:00
9:55 PM,67.6,66.2,95,29.67,10.0,SSE,15.0,25.3,0.08,Rain,Light Rain,160,2013-11-27 02:55:00
9:56 PM,68.0,66.2,94,29.68,10.0,SSE,16.1,25.3,N/A,,Overcast,160,2013-11-27 02:56:00
10:15 PM,68.0,66.4,95,29.66,10.0,SSE,17.3,26.5,N/A,,Mostly Cloudy,160,2013-11-27 03:15:00
10:35 PM,68.0,66.4,95,29.66,10.0,SSE,13.8,23.0,0.01,Rain,Light Rain,160,2013-11-27 03:35:00
10:55 PM,68.0,66.7,96,29.65,7.0,South,12.7,-,0.06,Rain,Light Rain,170,2013-11-27 03:55:00
11:15 PM,68.2,67.1,96,29.64,10.0,South,10.4,-,N/A,,Drizzle,170,2013-11-27 04:15:00
11:35 PM,68.2,67.1,96,29.63,10.0,South,10.4,-,N/A,,Mostly Cloudy,180,2013-11-27 04:35:00
11:55 PM,68.7,67.3,95,29.63,10.0,South,10.4,-,N/A,,Mostly Cloudy,190,2013-11-27 04:55:00